Погода в Селеткане

Россия / Амурская область     51°55′08″N   127°54′16″E
темп.,
°C
ветер,
м/с
пор.,
м/с
влажн.,
%
обл.,
%
осадки,
мм/ч
давл.,
гПа
погр.,
м
20 июня, вс
вс2000:00+14в3793100 0.9 1005123
03:00+13вюв349484 0.9 100668
06:00+14в1188100 0.0 100744
09:00+19св3467100 0.0 1008537
12:00+23св2351100 0.0 10071474
15:00+23ссв1356100 0.0 1006626
18:00+22з226498 0.0 100649
21:00+18зсз337120 0.0 100730
21 июня, пн
пн2100:00+16зсз347353 0.0 100749
03:00+15сз357579 0.0 100875
06:00+17сз2674100 0.0 1008128
09:00+22сз465599 0.0 1009471
12:00+26сз444395 0.0 10081589
15:00+27сз443769 0.0 10062779
18:00+27сз234754 0.0 1006839
21:00+19зюз356452 0.0 100765
22 июня, вт
вт2200:00+19зюз376498 0.0 1007136
03:00+17зюз367598 0.0 1007104
06:00+18з257378 0.0 1008103
09:00+24зсз36488 0.0 1007541
12:00+28зсз453524 0.0 10062556
15:00+29з462917 0.0 10052959
18:00+27з364643 0.0 1005260
21:00+21зюз356565 0.0 100569
23 июня, ср
ср2300:00+19з35619 0.0 100665
03:00+18зсз376765 0.0 1006119
06:00+18зсз38705 0.0 1007182
09:00+25зсз455021 0.0 1006541
12:00+29зсз353710 0.0 10062225
15:00+27ссз244756 0.0 10051219
18:00+28сз244542 0.0 1005546
21:00+21з22655 0.3 100513
24 июня, чт
чт2400:00+19зсз1181100 0.6 100713
03:00+18юз118241 0.6 100615
06:00+19с23825 0.0 100792
09:00+24св226090 0.0 1007545
12:00+28ссв1047100 0.0 10061080
15:00+29ссв114295 0.0 10061824
18:00+27св2256100 0.0 1005134
21:00+19в127731 0.1 100721